GEFSNGP_500_meanwind_012.txt.gz
Wind_Speed
11 13 16 18 20 23 25 27 29 30 31 32 35 37 37 37 38 39 40 40 40 40 40 39 39 38 37 35 34 32 30 29 29 29 27 25 23 21 18 15 15 18 20 21
13 16 18 19 22 24 25 26 29 32 35 37 39 41 41 40 41 42 41 40 40 40 40 39 39 39 37 34 32 30 28 27 27 26 24 21 19 17 15 11 7 8 9 11
18 19 21 22 24 29 31 30 31 35 39 41 41 42 42 40 41 43 42 40 39 39 38 39 39 38 36 33 31 29 27 26 25 23 20 17 16 14 12 9 7 5 4 6
25 26 27 23 31 34 35 36 38 40 42 42 42 43 43 43 44 45 44 42 39 38 38 39 39 38 35 32 30 28 26 25 22 19 17 15 14 11 10 8 7 6 6 7
27 29 30 30 36 39 40 42 45 46 47 47 47 47 45 45 45 44 44 44 42 40 38 38 38 38 36 30 29 27 25 23 20 16 14 13 12 11 10 9 9 9 9 9
32 35 36 39 42 44 46 48 50 50 51 52 51 51 48 47 46 45 45 44 44 42 39 37 37 37 35 30 28 26 23 20 17 15 13 12 12 11 11 11 11 11 11 11
38 40 42 46 47 49 51 52 52 52 53 53 52 53 53 51 49 49 48 46 46 44 40 37 37 36 33 29 27 26 22 19 17 15 14 12 12 12 12 12 11 10 9 9
40 42 45 47 49 51 53 55 56 57 58 58 59 61 60 57 54 51 50 48 46 43 41 37 36 36 32 29 28 26 24 21 18 16 14 13 13 12 12 10 9 8 7 6
43 46 48 50 52 53 55 57 59 61 62 63 64 66 66 64 60 55 52 48 45 43 41 38 38 36 32 29 28 28 27 24 21 19 16 14 13 11 11 10 8 7 6 4
45 48 51 53 55 57 59 61 64 66 68 69 69 69 68 66 63 60 56 50 46 43 42 41 38 35 32 30 29 30 31 28 25 22 19 16 14 12 11 10 8 7 6 6
46 49 52 55 58 61 63 66 67 69 71 72 74 73 71 67 65 65 60 52 46 44 44 44 41 34 32 32 30 31 33 32 29 25 22 19 16 15 13 12 10 9 8 7
50 53 56 60 64 68 70 70 70 71 73 75 78 79 76 72 69 67 63 57 50 46 45 45 44 39 35 33 33 31 34 35 32 28 25 22 19 16 15 14 12 11 10 9
54 59 64 68 72 74 75 75 74 76 79 81 79 76 72 68 66 66 67 65 58 50 46 45 45 43 39 35 35 32 33 37 36 32 28 26 23 19 17 16 15 14 13 12
62 67 71 74 76 76 76 77 77 75 72 69 65 60 56 53 52 52 54 55 55 51 46 44 44 45 43 39 37 34 32 35 38 36 31 29 26 24 21 20 19 18 17 16
69 73 75 76 75 74 72 66 60 56 53 50 48 47 46 44 42 39 39 40 44 47 46 44 43 44 45 42 37 36 33 33 38 38 34 31 29 27 25 23 22 21 20 19
72 74 75 74 71 65 58 53 50 48 46 44 42 42 41 40 39 38 36 35 36 40 42 43 43 43 44 43 39 37 34 32 36 39 38 35 32 29 26 24 23 21 20 20
75 75 74 70 62 54 49 47 46 45 44 44 44 43 42 41 39 38 36 35 34 34 37 41 42 41 41 41 39 36 33 30 30 35 39 39 36 33 29 27 24 22 20 21
72 70 65 58 52 48 46 45 46 47 47 46 45 44 42 40 38 35 34 33 31 30 33 38 40 38 37 39 38 37 33 30 27 30 34 37 37 36 33 30 27 24 22 21
66 60 54 50 47 47 47 49 50 50 50 49 47 44 41 40 38 36 34 31 27 25 31 36 38 36 35 36 37 36 32 29 25 25 28 31 34 35 33 31 28 26 23 21
57 51 48 45 44 46 48 50 51 51 50 50 49 46 43 40 37 34 32 29 24 23 29 34 35 34 32 32 35 35 31 28 23 22 23 25 27 30 29 28 27 24 22 20
50 46 43 42 43 45 47 49 51 50 50 50 49 46 42 38 35 32 29 25 21 21 29 34 33 32 30 31 33 34 32 28 23 21 21 22 25 27 26 25 24 22 19 18
44 42 40 40 43 44 46 47 49 50 50 49 48 45 41 36 31 27 23 20 19 22 29 32 31 30 29 29 32 33 32 28 23 22 22 24 25 25 24 23 21 18 16 15
40 38 38 39 41 42 43 44 47 49 50 48 46 42 37 31 25 20 16 17 19 24 29 30 29 29 28 30 32 32 30 27 24 23 23 25 26 25 23 21 19 16 14 13
37 35 35 36 38 39 41 43 46 48 48 46 44 39 32 24 15 10 10 15 21 26 28 28 27 27 27 29 31 31 29 27 25 24 25 26 26 25 23 20 17 15 13 12
34 32 32 33 35 37 40 42 44 46 46 44 42 36 28 18 8 2 8 15 20 25 26 26 25 25 26 29 32 31 30 28 25 25 26 27 26 24 22 19 17 15 13 11
31 29 29 31 32 35 37 40 42 43 45 44 41 36 28 17 8 6 11 17 21 23 23 22 23 24 25 28 30 31 30 28 26 27 28 28 26 24 22 19 17 15 13 12
27 26 27 27 29 31 33 37 40 40 40 41 39 35 28 18 12 14 17 19 21 20 18 19 20 21 23 26 30 32 32 30 28 29 29 27 25 23 21 19 18 16 15 14

GEFSNGP_500_meanwind_018.txt.gz
Wind_Speed
16 18 19 20 21 23 26 29 30 30 30 31 32 34 36 38 40 42 44 45 46 47 48 48 48 46 43 40 39 38 37 37 36 35 32 31 29 28 26 24 23 22 21 19
18 21 22 24 25 27 29 30 30 31 32 34 37 39 41 43 45 47 48 49 49 50 50 50 49 48 46 42 39 38 37 36 35 33 31 29 28 26 24 22 20 19 17 15
19 21 23 26 28 28 28 29 31 34 36 38 41 45 47 48 51 53 54 54 54 53 52 51 50 49 47 45 41 39 37 36 34 32 29 28 27 24 22 20 18 16 14 12
24 24 26 28 28 29 30 33 34 37 40 42 45 48 52 54 56 59 60 60 59 59 58 56 54 52 49 47 44 41 39 36 34 32 29 27 25 23 20 17 16 15 13 11
30 31 31 32 33 35 38 40 39 42 44 47 50 53 56 58 61 64 65 66 66 65 64 62 60 57 54 50 47 44 41 38 36 32 29 26 24 22 19 16 15 14 14 12
32 34 36 37 38 40 43 46 46 47 50 54 57 60 62 64 65 67 69 70 71 70 69 67 65 62 60 55 51 47 43 40 37 33 30 26 24 21 19 16 14 14 13 13
35 38 41 42 42 44 46 49 52 55 57 60 63 66 69 71 73 74 76 76 76 76 75 73 71 68 64 59 54 50 46 42 38 35 32 27 24 22 20 17 15 13 13 12
38 40 42 43 46 48 50 53 56 59 62 66 69 72 74 76 78 78 78 77 76 74 72 72 71 69 65 60 56 52 49 44 39 36 33 29 26 24 21 18 15 14 13 11
39 41 44 46 49 52 54 57 61 65 68 72 74 76 78 78 77 75 73 67 62 60 59 58 58 59 58 56 54 52 51 47 41 37 34 31 28 25 22 19 16 14 12 11
40 43 45 48 52 56 60 64 68 71 74 76 78 79 78 73 68 61 53 50 49 48 48 46 46 47 48 50 52 52 50 46 43 39 36 33 31 28 24 20 17 15 14 13
42 45 49 53 58 62 66 70 72 74 75 75 75 70 64 56 47 42 42 43 43 44 44 42 41 39 39 44 46 50 48 45 44 41 37 35 34 30 25 22 19 18 17 15
46 51 56 60 65 69 73 75 75 75 71 66 61 54 46 41 40 40 41 42 44 44 44 42 40 37 35 38 42 45 46 45 44 42 39 37 36 33 28 24 21 20 19 18
53 58 63 69 72 75 77 76 72 66 60 53 47 43 42 42 43 45 45 44 44 43 43 41 38 35 34 34 37 40 42 43 43 41 39 38 38 35 31 27 24 23 22 20
61 66 71 74 77 77 75 70 62 54 48 45 43 42 43 44 45 46 46 46 45 43 42 41 37 33 31 32 34 37 39 40 40 40 40 39 39 37 33 29 26 25 24 23
66 71 74 77 77 73 67 59 51 45 42 41 42 43 44 46 47 48 48 48 47 44 41 38 34 30 29 29 32 36 38 39 38 39 39 38 39 39 36 32 29 28 27 25
70 74 77 77 73 66 58 50 44 41 41 42 44 45 48 50 51 52 51 49 47 43 40 36 31 29 27 27 31 34 37 37 37 39 38 38 40 40 38 34 31 29 27 25
76 78 78 74 66 57 49 44 42 42 43 44 46 49 52 54 55 53 51 49 46 42 38 33 30 28 25 26 30 34 36 37 37 38 37 39 40 39 38 35 32 30 28 26
76 75 71 65 57 50 44 41 41 42 44 47 49 52 54 55 54 53 50 46 41 37 34 31 27 25 23 26 31 34 35 36 35 36 37 38 39 39 38 36 33 31 29 26
73 68 62 56 50 45 41 40 41 42 45 48 51 54 55 55 53 51 47 41 36 30 27 25 23 21 22 27 31 34 34 35 35 37 37 37 37 38 38 36 34 31 29 26
67 61 55 49 43 39 38 39 40 42 46 49 53 54 53 52 50 46 41 35 28 22 18 18 18 19 24 28 32 34 34 33 35 36 35 35 36 36 36 36 34 31 29 27
61 55 49 43 37 35 36 37 39 43 46 49 51 51 51 49 46 42 36 28 20 13 10 11 15 20 26 30 34 34 34 34 36 36 34 33 33 34 34 34 34 33 31 28
57 51 44 38 33 32 34 36 39 43 47 49 49 48 48 47 43 38 32 25 17 10 3 9 16 22 27 32 34 35 35 34 36 35 33 31 30 31 31 32 34 34 32 29
54 47 40 34 30 31 32 34 38 42 46 47 47 47 45 43 41 36 28 21 15 8 7 13 20 25 30 33 34 35 35 35 35 33 31 29 27 27 28 29 31 32 31 29
50 44 37 31 28 29 30 32 36 40 44 45 44 43 42 39 36 33 27 21 16 13 14 19 23 27 31 32 33 34 35 35 34 31 28 25 24 24 25 27 27 27 27 26
48 41 33 28 27 27 29 32 35 38 41 41 40 39 38 35 32 29 25 20 17 17 18 21 24 28 29 31 33 35 35 35 32 28 25 22 22 24 25 25 24 23 23 22
45 38 31 27 27 27 29 31 34 38 39 39 37 35 32 29 28 26 23 19 17 16 18 21 24 26 29 31 33 33 33 32 29 26 23 22 22 24 25 24 23 22 21 19
42 35 28 23 23 24 26 29 32 36 38 37 35 32 28 25 24 24 21 19 17 16 17 19 22 25 28 30 31 30 29 28 26 24 22 22 23 25 24 23 22 21 20 18

GEFSNGP_500_meanwind_024.txt.gz
Wind_Speed
18 20 21 21 22 25 28 31 33 34 35 37 38 40 42 44 46 48 50 52 55 57 59 60 60 60 61 60 59 58 57 56 54 52 49 47 45 42 41 39 37 35 34 31
20 22 23 25 26 28 30 32 34 35 37 38 40 42 45 48 50 52 55 57 60 62 63 64 64 65 65 64 63 62 61 61 60 57 54 50 47 44 42 40 37 34 32 29
23 24 27 28 29 31 33 34 36 39 41 43 44 46 49 52 55 58 61 63 64 66 66 68 69 70 70 69 69 69 68 67 65 62 59 55 50 47 43 40 36 33 31 28
28 29 30 32 33 35 37 40 41 43 45 46 48 50 53 58 61 63 66 68 70 72 73 75 76 77 76 76 76 75 74 72 70 67 63 59 53 48 44 40 36 32 30 27
31 33 35 36 38 40 42 43 45 46 48 52 55 57 60 65 68 71 73 75 77 79 80 81 81 82 82 81 79 78 76 73 71 68 64 60 55 49 45 41 37 32 29 26
33 35 37 39 40 41 43 45 48 51 55 59 62 66 67 71 74 77 79 81 82 83 83 83 82 81 79 76 73 70 66 63 60 59 58 55 53 50 46 42 38 34 29 26
32 34 36 38 39 42 46 50 54 58 62 66 70 74 77 79 81 82 81 79 78 76 74 72 70 67 64 60 56 53 50 48 46 46 48 49 49 49 46 43 39 35 30 27
31 33 36 39 43 47 52 56 61 65 70 74 78 81 81 80 77 73 68 65 62 60 57 54 52 50 46 43 40 39 38 38 39 40 41 42 45 48 47 43 40 35 31 28
33 36 41 46 51 55 60 64 69 74 78 82 83 82 77 70 63 57 53 51 48 46 43 41 41 40 38 37 37 37 36 36 37 38 37 37 42 46 47 44 40 36 32 29
38 42 46 52 56 61 66 70 75 79 81 81 77 70 61 55 50 46 44 43 42 42 41 40 40 41 41 40 40 40 38 36 36 34 33 34 41 46 46 44 41 37 33 29
44 48 52 56 61 66 71 75 78 79 76 70 62 54 49 45 43 42 43 43 43 43 43 42 42 42 43 43 43 41 38 36 35 33 31 32 39 45 46 43 41 37 33 30
49 53 58 62 66 71 75 77 77 73 65 55 49 46 43 43 43 43 44 45 46 46 46 47 47 46 45 44 43 41 38 35 32 30 29 30 36 41 44 42 40 38 35 32
53 57 61 66 70 74 76 75 69 61 52 44 42 42 43 43 45 46 48 49 49 50 50 50 49 48 47 45 43 40 36 32 29 28 27 29 36 39 43 41 41 40 37 34
56 60 63 68 72 75 74 70 61 50 43 41 41 42 44 46 48 50 51 52 52 52 52 50 49 46 45 42 39 36 33 28 27 26 26 30 35 37 41 43 43 41 39 35
58 62 67 71 75 75 71 64 52 42 39 39 41 43 46 49 52 53 54 54 53 52 50 48 45 43 41 38 35 32 29 26 25 25 25 29 35 38 41 44 44 42 39 36
59 64 70 74 76 74 67 57 45 38 38 40 42 46 50 52 55 55 54 54 52 50 47 44 41 37 33 30 27 26 25 24 23 24 26 32 35 39 42 44 43 43 40 36
63 67 72 75 77 71 62 51 42 39 40 42 46 49 52 54 54 53 53 51 50 47 43 39 34 29 24 21 20 21 22 21 22 25 28 31 36 40 41 42 43 42 38 35
66 71 75 76 75 67 56 46 40 40 42 45 48 50 53 54 53 52 52 49 46 42 38 32 26 20 15 14 15 18 20 22 24 27 30 33 37 40 40 41 42 41 39 36
68 72 75 74 69 62 52 43 39 40 43 46 49 51 53 53 52 51 49 47 43 38 32 25 18 11 7 8 11 16 20 23 27 29 31 34 38 39 39 41 42 40 38 35
69 72 74 71 64 57 48 40 38 40 43 46 49 50 50 49 49 47 46 44 40 34 28 21 14 7 0 6 12 18 23 27 29 31 34 35 36 37 38 40 40 39 36 33
69 72 73 68 60 52 44 38 37 39 43 46 49 49 48 46 45 45 44 41 37 32 24 18 12 7 6 11 17 23 27 30 32 34 34 35 36 37 38 40 39 37 34 31
69 71 71 66 57 48 40 36 36 39 43 46 48 48 45 43 42 42 41 38 35 30 25 18 13 10 13 18 23 28 31 32 33 34 34 35 35 35 36 37 36 34 32 30
68 70 69 63 55 45 37 35 35 38 41 44 46 46 43 41 40 39 38 37 34 29 24 19 15 15 19 24 28 30 31 32 33 34 35 34 33 32 33 34 33 32 30 29
67 69 67 61 52 42 35 33 34 37 40 42 43 43 40 38 36 36 36 35 32 26 22 18 16 19 23 27 28 29 30 31 32 32 32 31 29 29 30 31 31 30 29 28
66 67 64 57 48 39 33 31 32 35 37 38 39 38 35 35 35 35 34 32 29 24 20 17 17 20 23 26 28 29 30 30 30 30 29 27 26 25 27 28 28 28 28 27
65 66 62 54 46 38 33 31 32 35 36 36 36 34 31 30 30 30 30 28 26 22 18 17 18 20 22 25 28 29 28 28 27 27 25 24 22 22 22 23 24 25 25 25
64 63 58 50 42 36 32 31 31 33 35 35 34 32 29 28 27 27 25 23 22 20 17 17 18 20 23 25 26 26 25 24 24 22 21 19 18 18 19 20 20 21 22 22

GEFSNGP_500_meanwind_030.txt.gz
Wind_Speed
20 21 23 24 25 26 27 30 32 34 37 40 41 43 44 45 47 48 50 53 55 57 59 61 63 65 66 68 69 70 71 72 72 71 70 69 68 64 60 57 52 48 44 42
21 22 24 26 26 28 30 31 33 35 38 40 42 44 46 49 52 55 58 60 63 65 67 69 71 73 74 76 77 78 78 79 78 79 77 77 75 70 65 62 58 54 49 45
23 25 27 28 28 30 31 33 34 37 41 44 47 50 53 56 60 63 66 70 72 75 77 78 79 80 81 81 82 83 84 84 84 83 82 81 79 75 71 66 63 59 53 50
25 27 28 28 29 31 33 35 39 43 47 50 54 57 60 64 69 71 74 77 79 78 77 74 71 68 67 67 68 69 70 72 74 76 78 78 78 76 73 69 66 61 56 52
26 27 30 29 31 35 38 42 45 49 52 56 60 63 67 72 76 78 79 77 73 66 60 54 50 47 46 45 45 46 48 49 52 55 58 60 63 66 67 66 64 60 56 52
28 29 32 35 38 40 44 48 51 55 59 63 67 70 73 77 78 76 69 61 54 48 43 41 39 39 38 37 36 36 35 35 35 35 37 40 43 47 50 53 54 53 51 48
30 33 36 38 41 44 47 52 56 60 64 68 73 76 78 76 70 60 52 47 43 41 40 40 40 41 41 40 39 38 36 34 31 30 28 28 29 32 36 39 42 45 47 45
33 36 40 43 45 48 52 56 61 65 69 73 76 77 73 64 54 47 43 42 41 40 40 41 42 43 43 42 42 41 39 37 34 31 29 27 25 25 28 32 35 37 43 45
35 37 41 46 50 53 57 61 65 70 74 77 77 71 61 50 43 41 41 41 42 43 43 44 45 46 45 44 44 43 42 40 37 34 30 29 27 27 27 29 33 36 40 44
38 41 44 48 52 56 61 65 69 74 76 75 69 58 47 41 40 40 41 43 45 45 46 47 48 48 48 48 47 45 43 41 38 35 32 30 29 27 27 27 32 36 39 42
41 44 47 50 55 59 63 67 72 75 73 67 58 47 41 39 40 42 44 46 47 49 50 50 51 51 50 49 48 44 42 40 37 35 33 31 29 28 27 27 30 36 41 41
44 48 51 54 58 62 65 70 74 74 68 56 47 41 39 40 43 45 47 48 50 52 53 53 52 50 49 48 45 41 38 36 34 32 31 31 30 29 29 28 28 31 37 41
46 49 52 56 59 64 69 73 74 69 59 47 40 38 41 43 45 48 50 52 52 53 53 51 49 48 45 42 39 37 34 33 32 30 29 29 29 29 27 26 26 28 33 38
48 51 54 57 61 66 71 74 71 61 50 42 39 40 43 46 48 51 52 53 53 52 50 49 47 43 40 37 34 31 29 28 27 27 26 25 26 27 25 25 26 28 33 39
48 52 56 59 63 68 73 74 68 55 45 39 39 42 45 48 51 53 54 53 51 50 48 45 42 39 35 32 28 25 22 21 21 23 24 24 24 25 24 25 27 30 35 40
49 53 57 61 65 70 73 72 64 51 42 38 40 44 47 51 52 53 52 50 49 48 45 41 36 32 28 24 20 17 15 16 17 19 21 21 23 24 25 27 30 33 36 39
50 54 59 63 66 71 73 69 59 48 41 39 42 46 49 51 51 51 50 48 46 44 40 36 32 27 22 16 11 7 8 11 15 18 20 21 23 25 27 30 33 35 38 40
52 56 60 64 68 71 72 64 54 46 41 41 44 48 49 50 49 49 48 46 44 40 35 32 28 22 15 9 4 4 8 13 17 19 21 22 24 27 28 32 35 37 40 40
52 56 60 64 68 71 70 61 52 45 41 42 45 47 48 48 47 48 46 42 39 36 33 29 25 19 13 9 9 12 15 18 20 21 22 24 27 28 31 36 38 39 40 40
52 56 60 64 67 70 68 60 51 44 42 43 45 46 47 46 45 45 43 41 39 36 33 28 24 19 16 15 16 18 20 21 23 24 25 27 29 31 34 37 38 40 39 38
52 55 59 63 66 68 66 59 50 43 41 42 44 45 46 44 43 43 41 40 39 36 32 28 24 21 18 18 19 22 24 25 26 27 28 30 31 33 36 38 38 38 37 38
51 55 59 62 65 67 64 57 49 42 40 41 42 43 43 40 39 40 40 38 36 32 30 28 26 24 22 22 23 25 27 28 29 30 31 32 33 34 36 37 36 35 35 35
51 54 58 61 64 65 62 55 48 41 39 39 40 41 40 37 37 38 37 35 33 30 28 27 25 24 25 26 27 27 29 30 32 32 32 32 32 32 33 34 33 32 32 32
50 53 57 59 62 63 61 54 46 39 36 37 38 38 37 34 33 33 33 32 30 28 27 27 26 26 26 27 28 28 29 30 30 30 30 30 30 30 31 31 30 30 29 29
49 52 55 58 60 62 60 53 44 36 33 33 34 34 33 31 30 30 29 28 26 26 25 26 26 25 25 25 26 26 27 27 27 27 27 27 26 27 28 28 27 27 27 27
48 51 54 56 58 60 58 52 43 35 30 29 30 30 29 27 27 26 26 24 22 22 23 23 24 24 23 23 24 24 24 24 23 23 24 24 24 25 25 26 25 25 24 24
47 50 52 54 56 57 56 51 43 35 29 27 27 27 26 24 23 23 22 21 19 19 19 20 21 22 22 22 22 22 21 21 21 20 20 21 22 23 24 24 23 22 22 21

GEFSNGP_500_meanwind_036.txt.gz
Wind_Speed
13 13 15 18 20 23 26 29 32 36 40 45 47 49 52 55 58 61 64 66 67 69 71 73 75 76 76 75 74 73 72 71 71 71 72 73 74 76 76 76 75 73 71 69
15 16 17 20 22 26 31 34 38 40 43 48 51 54 57 59 62 65 68 70 72 75 76 77 75 72 68 64 60 57 55 54 53 53 54 56 59 63 67 70 73 75 75 74
20 19 21 23 26 30 35 39 43 46 48 51 54 57 59 62 65 69 71 74 76 76 73 68 61 54 50 47 45 44 42 40 39 39 39 40 40 42 45 50 56 63 68 71
23 23 23 27 29 34 38 41 46 48 50 53 57 60 62 65 69 71 73 74 70 64 56 49 44 41 41 40 39 38 37 36 36 36 36 35 36 36 37 37 39 43 49 57
25 25 29 33 34 38 42 45 48 51 54 58 61 63 64 68 71 72 69 63 55 47 41 39 38 38 38 38 38 37 36 36 36 36 35 35 34 34 33 33 32 33 35 39
28 30 33 36 39 43 45 48 53 55 58 61 63 66 68 69 70 65 57 49 43 40 39 40 40 41 42 41 41 41 40 40 39 38 37 36 35 33 33 32 30 29 29 30
29 32 37 39 43 45 47 50 52 55 58 62 66 69 70 67 61 52 45 41 41 42 43 44 45 46 45 45 45 45 45 44 43 42 40 38 35 34 33 33 31 29 27 25
32 35 39 42 44 47 50 53 56 60 63 66 69 69 65 59 51 45 42 42 44 46 47 48 49 49 49 48 48 48 48 47 46 45 43 40 37 35 33 32 31 29 26 25
34 37 41 44 47 50 53 56 60 63 66 69 70 65 58 51 45 43 44 46 48 50 51 51 51 52 51 51 51 50 49 48 46 44 42 40 37 35 34 32 30 28 27 25
36 39 43 47 50 52 55 58 62 65 68 69 65 58 52 47 45 45 47 49 51 53 53 53 52 52 52 52 51 50 48 45 43 41 39 38 36 34 32 31 30 28 25 23
39 43 44 46 50 53 56 59 63 66 69 66 60 55 50 47 46 48 51 52 54 54 54 54 52 51 51 49 47 45 42 39 36 34 33 33 32 30 29 29 28 27 24 21
41 43 46 48 51 55 58 61 64 67 68 62 57 53 49 48 49 51 53 54 54 54 54 53 51 49 46 43 40 38 36 33 31 29 27 27 27 26 27 27 27 25 23 20
41 43 45 48 52 55 59 62 65 67 66 59 54 50 48 49 51 53 54 54 53 53 51 49 47 42 39 36 33 31 29 26 23 22 22 21 22 22 23 24 24 24 22 20
43 44 46 49 52 56 60 63 65 66 62 56 52 49 49 49 51 52 53 52 51 50 48 45 41 37 34 31 27 24 21 18 15 15 15 15 17 18 20 21 22 22 21 19
43 45 47 49 53 56 59 62 64 64 60 54 50 49 48 49 50 51 51 50 49 48 45 42 37 33 30 26 22 18 14 10 7 8 10 11 14 16 18 19 20 20 19 18
42 44 47 49 52 55 59 62 64 63 59 53 49 47 48 48 49 50 49 48 47 46 43 40 35 31 28 24 19 15 11 6 2 3 7 10 12 14 16 17 19 19 17 17
42 44 47 49 52 55 59 61 63 63 59 52 48 47 46 46 47 48 48 47 45 44 42 39 35 31 27 23 18 14 11 8 5 6 8 9 12 14 16 17 19 19 19 20
42 45 47 50 53 56 58 60 62 61 57 52 47 45 44 44 46 47 46 45 44 42 40 38 34 31 27 23 19 16 13 11 11 11 11 12 14 17 19 19 20 21 22 22
42 44 46 49 52 55 58 59 60 59 56 50 45 42 42 44 45 45 44 43 42 41 39 36 33 30 27 24 21 19 17 16 15 14 14 15 17 20 21 22 24 25 26 27
41 43 45 48 51 54 56 58 59 58 55 50 44 40 40 41 41 41 41 41 41 40 38 35 33 31 28 26 25 22 21 20 19 20 21 22 23 25 26 27 28 28 30 31
41 43 45 47 50 53 55 57 57 56 54 49 42 38 38 38 39 38 38 37 37 37 37 36 33 31 29 28 27 26 26 24 24 24 24 25 27 28 29 30 31 32 33 33
41 42 44 46 49 51 53 55 56 55 52 47 40 36 35 34 34 35 35 35 35 34 34 34 33 31 29 28 28 28 28 28 27 27 27 27 29 30 30 31 32 32 32 32
40 42 43 45 47 49 51 52 53 53 51 47 40 35 32 32 31 31 31 31 31 31 31 32 32 31 30 29 29 29 28 28 28 28 28 29 30 29 29 30 30 30 30 30
40 42 43 45 46 48 49 50 50 51 50 46 40 34 29 28 27 27 27 27 27 26 27 28 28 28 28 28 28 29 28 28 27 27 28 28 28 28 28 28 28 28 28 28
40 41 42 43 45 46 47 48 48 49 48 44 40 33 28 25 24 23 23 23 22 22 23 23 24 24 24 25 25 25 25 25 25 25 25 25 25 25 25 25 25 24 25 25
39 40 41 42 44 45 46 46 46 47 46 43 38 32 26 22 21 19 18 18 18 18 18 19 20 21 21 20 21 21 21 22 22 22 21 21 21 21 21 21 21 21 21 21
39 40 40 42 43 44 45 45 44 45 44 43 38 31 25 20 18 16 15 14 13 13 14 14 14 15 16 16 16 16 16 16 16 17 17 17 17 17 18 18 18 17 17 17